Find Starlink 32555

NORAD ID: 61918 Int'l Des: 2024-207 Owner: SPXS Country: US Constellation: starlink operational
LEOCIRCULAR

Current View

Loading 3D Globe...

About Starlink 32555

Description loading...

Upcoming Passes

Passes for default location (London). Set your location on the main map for personalized predictions.

Altitude History

Loading altitude history...

Two-Line Element Set

1 61918U 24207G 26150.46483885 .00034778 00000-0 12674-2 0 9991
2 61918 43.0005 183.7993 0001751 268.3261 91.7390 15.27578632 87180
Epoch: May 30, 2026 • Age: 12 hours

Current Status

Altitude 485.1 km
Velocity 7.63 km/s
Sub-Earth Point 33.65°N, 87.07°E
Launch Date Nov 11, 2024
Age 1.5 years
Type internet

Technical Details

Classification Payload
Mass 730.00 kg
Dry Mass 700.00 kg
Total Mass 730.00 kg
Length 0.30 m
Diameter 4.10 m
Span 29.00 m
Shape Box + pan
Manufacturer SPXS
Bus Type Starlink V2M
Phase Status In Orbit
Owner/State SPXS/US

Most Searched